Location: Waco, TX
(31.5480°N, 97.1670°W)
Time: 22:58:22
(UTC-05:00)

ISS - Pass Details

Date: 21 April 2018
Orbit: 403 x 406 km, 51.6° (Epoch: 23 April)

Event Time Altitude Azimuth Distance (km) Brightness Sun altitude
Rises 08:16:19 0° 183° (S) 2,297 -0.1 16.6°
Reaches altitude 10° 08:19:20 10° 152° (SSE) 1,445 -0.6 17.2°
Maximum altitude 08:20:45 12° 126° (SE) 1,315 -0.3 17.5°
Drops below altitude 10° 08:22:10 10° 100° (E) 1,449 1.0 17.8°
Sets 08:25:12 0° 69° (ENE) 2,313 1.4 18.5°
